This is the latest recevied weather packets stored in our database for station/object W3TMB. If no packets are shown the sender has not sent any weather packets the latest 10 day(s).
| Time | Temp. | Humidity | Pressure | Rain* | Wind** | Luminosity | Snow |
|---|---|---|---|---|---|---|---|
| 1778154783 | 8.33° C | 81% | 1010.8 hPa | 0 mm | - | 126 W/m² | - |
| 1778154479 | 7.78° C | 81% | 1010.8 hPa | 0 mm | - | 145 W/m² | - |
| 1778154177 | 7.78° C | 81% | 1010.9 hPa | 0 mm | - | 133 W/m² | - |
| 1778153874 | 7.78° C | 82% | 1010.8 hPa | 0 mm | - | 71 W/m² | - |
| 1778153570 | 7.22° C | 84% | 1010.9 hPa | 0 mm | - | 49 W/m² | - |
| 1778153269 | 7.22° C | 84% | 1010.9 hPa | 0 mm | - | 72 W/m² | - |
| 1778152965 | 6.67° C | 85% | 1010.8 hPa | 0 mm | - | 66 W/m² | - |
| 1778152663 | 6.67° C | 86% | 1010.8 hPa | 0 mm | - | 58 W/m² | - |
| 1778152359 | 6.11° C | 87% | 1010.8 hPa | 0 mm | - | 44 W/m² | - |
| 1778152055 | 6.11° C | 88% | 1010.7 hPa | 0 mm | - | 41 W/m² | - |
| 1778151752 | 5.56° C | 90% | 1010.7 hPa | 0 mm | - | 42 W/m² | - |
| 1778151449 | 5.56° C | 91% | 1010.6 hPa | 0 mm | - | 38 W/m² | - |
| 1778151145 | 5.56° C | 94% | 1010.5 hPa | 0 mm | - | 34 W/m² | - |
| 1778150842 | 4.44° C | 97% | 1010.4 hPa | 0 mm | - | 29 W/m² | - |
| 1778150539 | 3.89° C | 98% | 1010.4 hPa | 0 mm | - | 26 W/m² | - |
| 1778150235 | 3.89° C | 99% | 1010.5 hPa | 0 mm | - | 20 W/m² | - |
| 1778149931 | 3.33° C | 99% | 1010.5 hPa | 0 mm | - | 17 W/m² | - |
| 1778149628 | 3.33° C | 99% | 1010.2 hPa | 0 mm | - | 14 W/m² | - |
| 1778149324 | 3.33° C | 99% | 1010.3 hPa | 0 mm | - | 12 W/m² | - |
| 1778149020 | 3.33° C | 99% | 1010.1 hPa | 0 mm | - | 9 W/m² | - |
| 1778148716 | 3.33° C | 98% | 1010.2 hPa | 0 mm | - | 6 W/m² | - |
| 1778148413 | 3.33° C | 98% | 1010.1 hPa | 0 mm | - | 3 W/m² | - |
| 1778148112 | 3.33° C | 98% | 1010.1 hPa | 0 mm | - | 1 W/m² | - |
| 1778147809 | 3.33° C | 98% | 1010.3 hPa | 0 mm | - | 0 W/m² | - |
| 1778147506 | 3.33° C | 98% | 1010 hPa | 0 mm | - | 0 W/m² | - |
* Rain latest hour (hover to see other rain measurements)
** Current wind speed in m/s (hover to see current wind gust speed)